• In Portugal
  • List of Countries
  • For 7 days
  • Water Temperature
  • Satellite Maps
  • Weather Map
  • Weather Widgets
  • user-avatar
    Login

    Hourly Weather Barancevo

    Today, 28 May, Monday

    Time Temperature Precipitation Wind Pressure Humidity
    00:00 +13°C° 0 mm 2 mps 755 mmHg 64%
    01:00 +12°C° 0 mm 2 mps 755 mmHg 63%
    02:00 +10°C° 0 mm 2 mps 755 mmHg 62%
    03:00 +9°C° 0 mm 2 mps 756 mmHg 64%
    04:00 +9°C° 0 mm 2 mps 756 mmHg 66%
    05:00 +9°C° 0 mm 2 mps 756 mmHg 68%
    06:00 +12°C° 0 mm 2 mps 756 mmHg 63%
    07:00 +14°C° 0 mm 2 mps 757 mmHg 57%
    08:00 +16°C° 0 mm 2 mps 757 mmHg 52%
    09:00 +18°C° 0 mm 3 mps 757 mmHg 47%
    10:00 +19°C° 0 mm 3 mps 757 mmHg 42%
    11:00 +21°C° 0 mm 3 mps 758 mmHg 38%
    12:00 +21°C° 0 mm 3 mps 757 mmHg 37%
    13:00 +22°C° 0 mm 3 mps 757 mmHg 36%
    14:00 +24°C° 0 mm 3 mps 757 mmHg 35%
    15:00 +23°C° 0 mm 2 mps 757 mmHg 36%
    16:00 +23°C° 0 mm 2 mps 757 mmHg 38%
    17:00 +23°C° 0 mm 2 mps 757 mmHg 40%
    18:00 +20°C° 0 mm 2 mps 757 mmHg 48%
    19:00 +18°C° 0 mm 2 mps 757 mmHg 56%
    20:00 +16°C° 0 mm 1 mps 757 mmHg 64%
    21:00 +15°C° 0 mm 2 mps 757 mmHg 64%
    22:00 +13°C° 0 mm 2 mps 757 mmHg 65%
    23:00 +12°C° 0 mm 2 mps 757 mmHg 66%

    Tomorrow, 29 May, Tuesday

    Time Temperature Precipitation Wind Pressure Humidity
    00:00 +12°C° 0 mm 2 mps 757 mmHg 67%
    01:00 +10°C° 0 mm 2 mps 757 mmHg 69%
    02:00 +10°C° 0 mm 2 mps 757 mmHg 70%
    03:00 +10°C° 0 mm 2 mps 757 mmHg 71%
    04:00 +10°C° 0 mm 2 mps 757 mmHg 72%
    05:00 +10°C° 0 mm 2 mps 757 mmHg 72%
    06:00 +14°C° 0 mm 2 mps 757 mmHg 67%
    07:00 +16°C° 0 mm 2 mps 756 mmHg 63%
    08:00 +18°C° 0 mm 2 mps 756 mmHg 58%
    09:00 +20°C° 0 mm 2 mps 756 mmHg 55%
    10:00 +23°C° 0 mm 2 mps 755 mmHg 51%
    11:00 +25°C° 0 mm 2 mps 755 mmHg 48%
    12:00 +26°C° 0 mm 2 mps 754 mmHg 46%
    13:00 +26°C° 0 mm 2 mps 754 mmHg 45%
    14:00 +27°C° 0 mm 3 mps 753 mmHg 43%
    15:00 +27°C° 0 mm 2 mps 753 mmHg 45%
    16:00 +27°C° 0 mm 2 mps 752 mmHg 47%
    17:00 +27°C° 0 mm 2 mps 751 mmHg 49%
    18:00 +25°C° 0 mm 2 mps 751 mmHg 57%
    19:00 +23°C° 0 mm 2 mps 751 mmHg 66%
    20:00 +21°C° 0 mm 1 mps 750 mmHg 74%
    21:00 +19°C° 0 mm 2 mps 750 mmHg 78%
    22:00 +18°C° 0 mm 2 mps 750 mmHg 82%
    23:00 +17°C° 0 mm 2 mps 750 mmHg 86%

    Day after tomorrow, 30 May, Wednesday

    Time Temperature Precipitation Wind Pressure Humidity
    00:00 +17°C° 0 mm 2 mps 750 mmHg 89%
    01:00 +16°C° 0 mm 2 mps 750 mmHg 91%
    02:00 +16°C° 0 mm 2 mps 749 mmHg 93%
    03:00 +16°C° 0 mm 2 mps 749 mmHg 92%
    04:00 +16°C° 0 mm 2 mps 749 mmHg 90%
    05:00 +16°C° 0 mm 2 mps 748 mmHg 89%
    06:00 +18°C° 0 mm 3 mps 748 mmHg 80%
    07:00 +20°C° 0 mm 3 mps 748 mmHg 71%
    08:00 +22°C° 0 mm 4 mps 747 mmHg 62%
    09:00 +23°C° 0 mm 4 mps 747 mmHg 57%
    10:00 +25°C° 0 mm 4 mps 747 mmHg 51%
    11:00 +26°C° 0 mm 5 mps 746 mmHg 46%
    12:00 +27°C° 0 mm 5 mps 746 mmHg 44%
    13:00 +27°C° 0 mm 5 mps 745 mmHg 42%
    14:00 +28°C° 0 mm 5 mps 745 mmHg 40%
    15:00 +27°C° 0 mm 5 mps 744 mmHg 43%
    16:00 +26°C° 0 mm 4 mps 744 mmHg 46%
    17:00 +26°C° 0 mm 4 mps 744 mmHg 49%
    18:00 +23°C° 0 mm 4 mps 744 mmHg 54%
    19:00 +21°C° 0 mm 3 mps 744 mmHg 59%
    20:00 +19°C° 0 mm 3 mps 744 mmHg 65%
    21:00 +17°C° 0 mm 3 mps 744 mmHg 63%
    22:00 +16°C° 0 mm 3 mps 745 mmHg 60%
    23:00 +13°C° 0 mm 3 mps 745 mmHg 58%

    31 May, Thursday

    Time Temperature Precipitation Wind Pressure Humidity
    00:00 +12°C° 0 mm 3 mps 745 mmHg 59%
    01:00 +10°C° 0 mm 3 mps 746 mmHg 61%
    02:00 +9°C° 0 mm 2 mps 746 mmHg 62%
    03:00 +9°C° 0 mm 3 mps 746 mmHg 64%
    04:00 +9°C° 0 mm 3 mps 747 mmHg 66%
    05:00 +9°C° 0 mm 3 mps 747 mmHg 68%
    06:00 +10°C° 0 mm 3 mps 747 mmHg 65%
    07:00 +12°C° 0 mm 4 mps 748 mmHg 62%
    08:00 +13°C° 0 mm 4 mps 748 mmHg 59%
    09:00 +14°C° 0 mm 4 mps 748 mmHg 55%
    10:00 +15°C° 0 mm 5 mps 748 mmHg 50%
    11:00 +15°C° 0 mm 5 mps 749 mmHg 46%
    12:00 +16°C° 0 mm 5 mps 749 mmHg 43%
    13:00 +16°C° 0 mm 5 mps 749 mmHg 40%
    14:00 +16°C° 0 mm 5 mps 749 mmHg 37%
    15:00 +15°C° 0 mm 5 mps 749 mmHg 37%
    16:00 +15°C° 0 mm 5 mps 749 mmHg 37%
    17:00 +14°C° 0 mm 4 mps 749 mmHg 36%
    18:00 +13°C° 0 mm 4 mps 750 mmHg 42%
    19:00 +11°C° 0 mm 3 mps 750 mmHg 48%
    20:00 +10°C° 0 mm 3 mps 750 mmHg 54%
    21:00 +9°C° 0 mm 3 mps 751 mmHg 55%
    22:00 +8°C° 0 mm 3 mps 751 mmHg 57%
    23:00 +7°C° 0 mm 3 mps 752 mmHg 59%

    1 June, Friday

    Time Temperature Precipitation Wind Pressure Humidity
    00:00 +5°C° 0 mm 3 mps 752 mmHg 60%
    01:00 +4°C° 0 mm 3 mps 752 mmHg 62%
    02:00 +3°C° 0 mm 3 mps 753 mmHg 64%
    03:00 +3°C° 0 mm 3 mps 753 mmHg 64%
    04:00 +3°C° 0 mm 3 mps 753 mmHg 64%
    05:00 +3°C° 0 mm 3 mps 753 mmHg 64%
    06:00 +5°C° 0 mm 3 mps 754 mmHg 58%
    07:00 +8°C° 0 mm 3 mps 754 mmHg 52%
    08:00 +8°C° 0 mm 4 mps 754 mmHg 46%
    09:00 +10°C° 0 mm 4 mps 754 mmHg 43%
    10:00 +11°C° 0 mm 4 mps 754 mmHg 40%
    11:00 +13°C° 0 mm 4 mps 754 mmHg 38%
    12:00 +13°C° 0 mm 3 mps 754 mmHg 37%
    13:00 +14°C° 0 mm 3 mps 754 mmHg 36%
    14:00 +16°C° 0 mm 3 mps 754 mmHg 35%
    15:00 +16°C° 0 mm 3 mps 754 mmHg 36%
    16:00 +14°C° 0 mm 3 mps 753 mmHg 37%
    17:00 +14°C° 0 mm 3 mps 753 mmHg 38%
    18:00 +14°C° 0 mm 2 mps 753 mmHg 46%
    19:00 +12°C° 0 mm 2 mps 753 mmHg 53%
    20:00 +10°C° 0 mm 1 mps 754 mmHg 61%
    21:00 +9°C° 0 mm 1 mps 754 mmHg 62%
    22:00 +8°C° 0 mm 1 mps 754 mmHg 62%
    23:00 +7°C° 0 mm 1 mps 754 mmHg 63%

    2 June, Saturday

    Time Temperature Precipitation Wind Pressure Humidity
    00:00 +6°C° 0 mm 1 mps 755 mmHg 63%
    01:00 +5°C° 0 mm 0 mps 755 mmHg 64%
    02:00 +4°C° 0 mm 0 mps 755 mmHg 64%
    03:00 +5°C° 0 mm 0 mps 755 mmHg 65%
    04:00 +6°C° 0 mm 0 mps 755 mmHg 65%
    05:00 +6°C° 0 mm 0 mps 755 mmHg 65%
    06:00 +9°C° 0 mm 0 mps 755 mmHg 58%
    07:00 +11°C° 0 mm 0 mps 755 mmHg 51%
    08:00 +15°C° 0 mm 1 mps 755 mmHg 44%
    09:00 +18°C° 0 mm 1 mps 755 mmHg 40%
    10:00 +19°C° 0 mm 1 mps 755 mmHg 37%
    11:00 +21°C° 0 mm 1 mps 755 mmHg 34%
    12:00 +21°C° 0 mm 1 mps 754 mmHg 33%
    13:00 +22°C° 0 mm 1 mps 754 mmHg 32%
    14:00 +22°C° 0 mm 1 mps 753 mmHg 31%
    15:00 +22°C° 0 mm 1 mps 753 mmHg 33%
    16:00 +21°C° 0 mm 1 mps 752 mmHg 35%
    17:00 +20°C° 0 mm 2 mps 752 mmHg 38%
    18:00 +19°C° 0 mm 1 mps 752 mmHg 46%
    19:00 +16°C° 0 mm 1 mps 752 mmHg 55%
    20:00 +14°C° 0 mm 1 mps 751 mmHg 63%
    21:00 +13°C° 0 mm 1 mps 751 mmHg 64%
    22:00 +12°C° 0 mm 2 mps 752 mmHg 65%
    23:00 +10°C° 0 mm 2 mps 752 mmHg 66%
    Show more